Date String (YYYY-MM-DD hh:mm:ss) UTC,Instrument flags,Ambient pressure (hPa),Sample flow (lpm),Bypass flow (lpm),Sample temperature (°C),Ambient temperature (°C),ASC tube jacket temperature (°C),LED temperature (°C),Box temperature (°C),Sample RH (%),Span deviation,Mass concentration (μg/m³),Mass concentration (μg/m³),Mass concentration (μg/m³)
DateTimeUTC,F1_M11,P_M11,Q1_M11,Q2_M11,T1_M11,T2_M11,T3_M11,T4_M11,T5_M11,U1_M11,ZSPAN_M11,X0_M11,X2_M11,X1_M11
2022-08-29 19:00:00,,0830.8,5.00,0.00,29.4,27.6,00.0,38.1,31.2,23.4,0000.0,0019.34,0006.95,0005.71
2022-08-29 19:01:00,,0830.7,5.00,0.00,29.4,27.8,00.0,38.1,31.3,23.2,0000.0,0018.30,0006.92,0005.71
2022-08-29 19:02:00,,0830.7,5.00,0.00,29.4,28.0,00.0,38.1,31.3,23.2,0000.0,0018.27,0006.93,0005.71
2022-08-29 19:03:00,,0830.8,5.00,0.00,29.5,28.2,00.0,38.1,31.4,23.2,0000.0,0018.30,0006.96,0005.71
2022-08-29 19:04:00,,0830.7,5.01,0.00,29.5,28.4,00.0,38.1,31.4,23.2,0000.0,0017.37,0006.90,0005.71
2022-08-29 19:05:00,,0830.7,4.97,0.00,29.5,28.5,00.0,38.2,31.5,23.0,0000.0,0017.34,0006.91,0005.70
2022-08-29 19:06:00,,0830.8,5.00,0.00,29.6,28.6,00.0,38.2,31.6,22.6,0000.0,0017.88,0006.95,0005.70
2022-08-29 19:07:00,,0830.7,5.01,0.00,29.6,27.8,00.0,38.2,31.5,22.6,0000.0,0018.05,0006.92,0005.70
2022-08-29 19:08:00,,0830.6,5.00,0.00,29.5,26.7,00.0,38.2,31.3,22.5,0000.0,0017.73,0006.86,0005.69
2022-08-29 19:09:00,,0830.6,4.99,0.00,29.5,26.5,00.0,38.1,31.3,22.9,0000.0,0017.96,0006.84,0005.67
2022-08-29 19:10:00,,0830.6,5.00,0.00,29.5,26.8,00.0,38.1,31.2,23.2,0000.0,0016.50,0006.81,0005.65
2022-08-29 19:11:00,,0830.6,5.01,0.00,29.4,27.1,00.0,38.1,31.1,23.2,0000.0,0015.65,0006.82,0005.65
2022-08-29 19:12:00,,0830.7,5.00,0.00,29.4,27.4,00.0,38.1,31.2,23.6,0000.0,0017.17,0006.84,0005.64
2022-08-29 19:13:00,,0830.6,5.00,0.00,29.4,27.7,00.0,38.1,31.2,23.6,0000.0,0017.92,0006.86,0005.64
2022-08-29 19:14:00,,0830.6,5.00,0.00,29.4,27.9,00.0,38.1,31.3,23.4,0000.0,0017.77,0006.83,0005.64
2022-08-29 19:15:00,,0830.6,5.00,0.00,29.5,28.2,00.0,38.1,31.4,23.3,0000.0,0017.77,0006.90,0005.66
2022-08-29 19:16:00,,0830.6,5.01,0.00,29.5,28.3,00.0,38.1,31.4,23.5,0000.0,0017.99,0006.90,0005.67
2022-08-29 19:17:00,,0830.6,4.98,0.00,29.5,28.5,00.0,38.1,31.5,23.6,0000.0,0018.03,0006.90,0005.68
2022-08-29 19:18:00,,0830.6,5.00,0.00,29.6,28.5,00.0,38.2,31.5,23.5,0000.0,0018.31,0006.97,0005.69
2022-08-29 19:19:00,,0830.6,5.00,0.00,29.6,27.4,00.0,38.2,31.4,23.7,0000.0,0018.73,0007.07,0005.72
2022-08-29 19:20:00,,0830.6,4.99,0.00,29.5,26.5,00.0,38.1,31.3,23.9,0000.0,0019.16,0007.11,0005.75
2022-08-29 19:21:00,,0830.6,5.00,0.00,29.5,26.6,00.0,38.1,31.3,24.0,0000.0,0019.93,0007.16,0005.77
2022-08-29 19:22:00,,0830.6,5.01,0.00,29.4,26.9,00.0,38.1,31.2,23.9,0000.0,0019.73,0007.19,0005.79
2022-08-29 19:23:00,,0830.6,4.99,0.00,29.4,27.2,00.0,38.1,31.2,23.6,0000.0,0018.48,0007.17,0005.82
2022-08-29 19:24:00,,0830.6,5.00,0.00,29.4,27.5,00.0,38.1,31.2,23.8,0000.0,0017.55,0007.16,0005.83
2022-08-29 19:25:00,,0830.6,5.01,0.00,29.4,27.8,00.0,38.1,31.3,23.5,0000.0,0018.08,0007.23,0005.84
2022-08-29 19:26:00,,0830.5,5.01,0.00,29.4,28.0,00.0,38.1,31.3,23.5,0000.0,0018.58,0007.24,0005.84
2022-08-29 19:27:00,,0830.5,4.99,0.00,29.5,28.2,00.0,38.1,31.4,23.6,0000.0,0018.01,0007.20,0005.83
2022-08-29 19:28:00,,0830.5,5.00,0.00,29.5,28.4,00.0,38.1,31.4,23.5,0000.0,0017.20,0007.16,0005.83
2022-08-29 19:29:00,,0830.5,5.00,0.00,29.5,28.5,00.0,38.1,31.5,23.6,0000.0,0016.64,0007.07,0005.81
2022-08-29 19:30:00,,0830.6,4.99,0.00,29.6,28.3,00.0,38.2,31.5,23.5,0000.3,0016.44,0006.97,0005.79
2022-08-29 19:31:00,,0830.5,5.00,0.00,29.6,27.1,00.0,38.2,31.4,23.1,0000.0,0016.16,0006.93,0005.75
2022-08-29 19:32:00,,0830.5,4.99,0.00,29.5,26.5,00.0,38.1,31.3,23.3,0000.0,0015.36,0006.88,0005.73
2022-08-29 19:33:00,,0830.5,4.99,0.00,29.5,26.7,00.0,38.1,31.2,23.4,0000.0,0015.15,0006.85,0005.70
2022-08-29 19:34:00,,0830.5,5.00,0.00,29.4,27.0,00.0,38.1,31.1,22.9,0000.0,0015.97,0006.83,0005.67
2022-08-29 19:35:00,,0830.5,4.99,0.00,29.4,27.3,00.0,38.1,31.2,23.0,0000.0,0016.36,0006.82,0005.64
2022-08-29 19:36:00,,0830.5,5.01,0.00,29.4,27.6,00.0,38.1,31.2,23.2,0000.0,0016.15,0006.73,0005.61
2022-08-29 19:37:00,,0830.6,5.00,0.00,29.4,27.8,00.0,38.1,31.3,23.5,0000.0,0016.92,0006.69,0005.59
2022-08-29 19:38:00,,0830.6,4.99,0.00,29.4,28.1,00.0,38.1,31.3,23.7,0000.0,0017.45,0006.67,0005.57
2022-08-29 19:39:00,,0830.6,4.99,0.00,29.5,28.3,00.0,38.1,31.4,23.2,0000.0,0018.08,0006.64,0005.53
2022-08-29 19:40:00,,0830.5,5.01,0.00,29.5,28.4,00.0,38.1,31.4,23.3,0000.0,0018.78,0006.64,0005.51
2022-08-29 19:41:00,,0830.6,5.01,0.00,29.5,28.6,00.0,38.2,31.5,23.3,0000.0,0019.37,0006.66,0005.50
2022-08-29 19:42:00,,0830.5,4.99,0.00,29.6,28.0,00.0,38.2,31.5,22.6,0000.0,0019.22,0006.68,0005.50
2022-08-29 19:43:00,,0830.5,5.00,0.00,29.5,26.8,00.0,38.1,31.3,22.7,0000.0,0020.50,0006.68,0005.50
2022-08-29 19:44:00,,0830.5,4.99,0.00,29.5,26.5,00.0,38.1,31.3,22.8,0000.0,0021.00,0006.69,0005.51
2022-08-29 19:45:00,,0830.6,5.00,0.00,29.4,26.7,00.0,38.1,31.2,23.4,0000.0,0021.14,0006.79,0005.51
2022-08-29 19:46:00,,0830.5,5.01,0.00,29.4,27.0,00.0,38.0,31.1,23.5,0000.0,0022.58,0006.85,0005.52
2022-08-29 19:47:00,,0830.6,5.01,0.00,29.4,27.3,00.0,38.0,31.1,23.4,0000.0,0022.54,0006.95,0005.55
2022-08-29 19:48:00,,0830.5,5.00,0.00,29.4,27.6,00.0,38.0,31.2,23.5,0000.0,0021.41,0006.97,0005.57
2022-08-29 19:49:00,,0830.5,5.00,0.00,29.4,27.9,00.0,38.0,31.3,23.7,0000.0,0021.50,0007.05,0005.60
2022-08-29 19:50:00,,0830.5,5.00,0.00,29.4,28.1,00.0,38.1,31.3,23.7,0000.0,0021.27,0007.08,0005.63
2022-08-29 19:51:00,,0830.5,5.01,0.00,29.5,28.3,00.0,38.1,31.4,23.5,0000.0,0020.70,0007.15,0005.65
2022-08-29 19:52:00,,0830.5,4.98,0.00,29.5,28.4,00.0,38.1,31.4,23.2,0000.0,0020.42,0007.18,0005.67
2022-08-29 19:53:00,,0830.5,5.00,0.00,29.5,28.5,00.0,38.1,31.5,22.9,0000.0,0020.41,0007.19,0005.66
2022-08-29 19:54:00,,0830.5,5.01,0.00,29.6,27.5,00.0,38.1,31.4,23.3,0000.0,0019.13,0007.20,0005.67
2022-08-29 19:55:00,,0830.5,4.99,0.00,29.5,26.4,00.0,38.1,31.3,23.2,0000.0,0019.20,0007.25,0005.69
2022-08-29 19:56:00,,0830.4,5.00,0.00,29.4,26.4,00.0,38.1,31.2,23.0,0000.0,0019.23,0007.20,0005.69
2022-08-29 19:57:00,,0830.4,5.00,0.00,29.4,26.6,00.0,38.0,31.1,23.2,0000.0,0017.67,0007.12,0005.68
2022-08-29 19:58:00,,0830.4,5.01,0.00,29.3,26.9,00.0,38.0,31.0,23.8,0000.0,0017.43,0007.10,0005.66
2022-08-29 19:59:00,,0830.4,4.99,0.00,29.3,27.3,00.0,38.0,31.1,24.3,0000.0,0017.16,0007.07,0005.66
